Location: Hormuz
(27.0871°N, 56.4580°E)
Time: 06:36:18
(UTC+04:30)

Envisat - Pass Details

Date: 18 June 2021
Orbit: 764 x 766 km, 98.2° (Epoch: 02 August)

Event Time Altitude Azimuth Distance (km) Brightness Sun altitude
Rises 04:55:25 0° 35° (NE) 3,230 7.7 -11.3°
Reaches altitude 10° 04:58:34 10° 56° (NE) 2,300 7.1 -10.7°
Maximum altitude 05:01:46 17° 95° (E) 1,872 5.8 -10.1°
Drops below altitude 10° 05:04:56 10° 135° (SE) 2,292 5.6 -9.5°
Sets 05:08:02 0° 155° (SSE) 3,214 6.2 -8.9°
